Hourly Weather Dabrowica

Today, 17 April, Saturday

Time Temperature Precipitation Wind Pressure Humidity
00:00 +1°C° 0.7 mm 4 mps 742 mmHg 97%
01:00 +1°C° 0.7 mm 4 mps 742 mmHg 97%
02:00 +1°C° 1 mm 4 mps 742 mmHg 97%
03:00 +1°C° 1 mm 4 mps 743 mmHg 97%
04:00 +1°C° 1 mm 4 mps 743 mmHg 97%
05:00 +1°C° 0.4 mm 4 mps 743 mmHg 97%
06:00 +2°C° 0.4 mm 3 mps 743 mmHg 97%
07:00 +2°C° 0.4 mm 3 mps 743 mmHg 97%
08:00 +3°C° 0.1 mm 3 mps 744 mmHg 96%
09:00 +3°C° 0.1 mm 3 mps 744 mmHg 96%
10:00 +3°C° 0.1 mm 3 mps 744 mmHg 95%
11:00 +4°C° 0 mm 3 mps 744 mmHg 93%
12:00 +4°C° 0 mm 3 mps 744 mmHg 92%
13:00 +5°C° 0 mm 3 mps 745 mmHg 90%
14:00 +6°C° 0 mm 2 mps 745 mmHg 90%
15:00 +6°C° 0 mm 2 mps 745 mmHg 90%
16:00 +6°C° 0 mm 2 mps 745 mmHg 89%
17:00 +6°C° 0 mm 2 mps 745 mmHg 91%
18:00 +5°C° 0 mm 2 mps 745 mmHg 92%
19:00 +5°C° 0 mm 2 mps 745 mmHg 94%
20:00 +5°C° 0 mm 2 mps 745 mmHg 94%
21:00 +6°C° 0 mm 1 mps 745 mmHg 94%
22:00 +6°C° 0 mm 1 mps 745 mmHg 94%
23:00 +5°C° 0 mm 1 mps 745 mmHg 94%

Tomorrow, 18 April, Sunday

Time Temperature Precipitation Wind Pressure Humidity
00:00 +5°C° 0 mm 1 mps 745 mmHg 94%
01:00 +5°C° 0 mm 1 mps 745 mmHg 94%
02:00 +5°C° 0 mm 1 mps 745 mmHg 94%
03:00 +3°C° 0 mm 0 mps 745 mmHg 95%
04:00 +3°C° 0 mm 0 mps 745 mmHg 95%
05:00 +4°C° 0 mm 0 mps 745 mmHg 91%
06:00 +5°C° 0 mm 0 mps 745 mmHg 88%
07:00 +6°C° 0 mm 0 mps 745 mmHg 85%
08:00 +8°C° 0 mm 1 mps 745 mmHg 78%
09:00 +10°C° 0 mm 1 mps 745 mmHg 72%
10:00 +11°C° 0 mm 1 mps 745 mmHg 66%
11:00 +12°C° 0 mm 2 mps 745 mmHg 63%
12:00 +13°C° 0 mm 2 mps 744 mmHg 60%
13:00 +14°C° 0 mm 2 mps 744 mmHg 56%
14:00 +14°C° 0 mm 2 mps 744 mmHg 60%
15:00 +12°C° 0 mm 3 mps 744 mmHg 64%
16:00 +12°C° 0 mm 3 mps 744 mmHg 67%
17:00 +11°C° 0 mm 3 mps 744 mmHg 73%
18:00 +10°C° 0 mm 3 mps 744 mmHg 79%
19:00 +9°C° 0 mm 3 mps 744 mmHg 84%
20:00 +9°C° 0 mm 2 mps 744 mmHg 86%
21:00 +9°C° 0 mm 2 mps 744 mmHg 87%
22:00 +9°C° 0 mm 2 mps 744 mmHg 88%
23:00 +8°C° 0 mm 2 mps 744 mmHg 89%

Day after tomorrow, 19 April, Monday

Time Temperature Precipitation Wind Pressure Humidity
00:00 +8°C° 0 mm 2 mps 744 mmHg 90%
01:00 +7°C° 0 mm 2 mps 744 mmHg 92%
02:00 +7°C° 0 mm 3 mps 744 mmHg 93%
03:00 +5°C° 0 mm 3 mps 744 mmHg 94%
04:00 +4°C° 0 mm 3 mps 744 mmHg 95%
05:00 +5°C° 0 mm 3 mps 744 mmHg 90%
06:00 +6°C° 0 mm 4 mps 744 mmHg 85%
07:00 +7°C° 0 mm 4 mps 744 mmHg 80%
08:00 +8°C° 0 mm 4 mps 744 mmHg 74%
09:00 +10°C° 0 mm 4 mps 744 mmHg 69%
10:00 +11°C° 0 mm 4 mps 744 mmHg 63%
11:00 +12°C° 0 mm 4 mps 743 mmHg 60%
12:00 +12°C° 0 mm 4 mps 743 mmHg 56%
13:00 +13°C° 0 mm 4 mps 743 mmHg 52%
14:00 +12°C° 0.1 mm 4 mps 743 mmHg 56%
15:00 +12°C° 0.1 mm 4 mps 742 mmHg 60%
16:00 +12°C° 0.1 mm 4 mps 742 mmHg 63%
17:00 +11°C° 0.2 mm 4 mps 742 mmHg 69%
18:00 +10°C° 0.2 mm 4 mps 742 mmHg 74%
19:00 +7°C° 0.2 mm 4 mps 742 mmHg 80%
20:00 +7°C° 0 mm 4 mps 742 mmHg 81%
21:00 +7°C° 0 mm 3 mps 742 mmHg 83%
22:00 +7°C° 0 mm 3 mps 742 mmHg 84%
23:00 +6°C° 0 mm 2 mps 742 mmHg 85%

20 April, Tuesday

Time Temperature Precipitation Wind Pressure Humidity
00:00 +6°C° 0 mm 2 mps 741 mmHg 86%
01:00 +5°C° 0 mm 2 mps 741 mmHg 87%
02:00 +5°C° 0 mm 2 mps 741 mmHg 87%
03:00 +5°C° 0 mm 2 mps 741 mmHg 87%
04:00 +6°C° 0 mm 2 mps 740 mmHg 87%
05:00 +6°C° 0.1 mm 2 mps 740 mmHg 86%
06:00 +5°C° 0.1 mm 3 mps 740 mmHg 84%
07:00 +7°C° 0.1 mm 3 mps 740 mmHg 83%
08:00 +8°C° 0.1 mm 3 mps 740 mmHg 79%
09:00 +8°C° 0.1 mm 3 mps 740 mmHg 74%
10:00 +9°C° 0.1 mm 3 mps 740 mmHg 69%
11:00 +10°C° 0.2 mm 3 mps 739 mmHg 66%
12:00 +10°C° 0.2 mm 3 mps 739 mmHg 62%
13:00 +11°C° 0.2 mm 3 mps 738 mmHg 59%
14:00 +11°C° 0.3 mm 4 mps 738 mmHg 60%
15:00 +11°C° 0.3 mm 4 mps 738 mmHg 62%
16:00 +10°C° 0.3 mm 5 mps 738 mmHg 63%
17:00 +8°C° 0.1 mm 4 mps 738 mmHg 69%
18:00 +8°C° 0.1 mm 3 mps 738 mmHg 74%
19:00 +7°C° 0.1 mm 2 mps 737 mmHg 80%
20:00 +6°C° 0 mm 2 mps 737 mmHg 83%
21:00 +6°C° 0 mm 2 mps 737 mmHg 85%
22:00 +5°C° 0 mm 2 mps 737 mmHg 87%
23:00 +5°C° 0 mm 2 mps 737 mmHg 89%

21 April, Wednesday

Time Temperature Precipitation Wind Pressure Humidity
00:00 +4°C° 0 mm 3 mps 737 mmHg 91%
01:00 +3°C° 0 mm 3 mps 737 mmHg 92%
02:00 +3°C° 0.1 mm 3 mps 736 mmHg 93%
03:00 +3°C° 0.1 mm 3 mps 736 mmHg 94%
04:00 +3°C° 0.1 mm 4 mps 736 mmHg 95%
05:00 +4°C° 0.1 mm 4 mps 736 mmHg 92%
06:00 +5°C° 0.1 mm 5 mps 736 mmHg 89%
07:00 +5°C° 0.1 mm 5 mps 737 mmHg 86%
08:00 +7°C° 0 mm 6 mps 737 mmHg 77%
09:00 +8°C° 0 mm 6 mps 737 mmHg 68%
10:00 +9°C° 0 mm 7 mps 737 mmHg 59%
11:00 +9°C° 0 mm 6 mps 737 mmHg 57%
12:00 +10°C° 0 mm 6 mps 737 mmHg 55%
13:00 +10°C° 0 mm 6 mps 738 mmHg 53%
14:00 +10°C° 0 mm 5 mps 738 mmHg 53%
15:00 +10°C° 0 mm 5 mps 738 mmHg 54%
16:00 +11°C° 0 mm 4 mps 738 mmHg 55%
17:00 +10°C° 0 mm 3 mps 739 mmHg 60%
18:00 +9°C° 0 mm 2 mps 739 mmHg 64%
19:00 +9°C° 0 mm 1 mps 739 mmHg 69%
20:00 +8°C° 0 mm 1 mps 739 mmHg 72%
21:00 +7°C° 0 mm 2 mps 740 mmHg 74%
22:00 +6°C° 0 mm 2 mps 740 mmHg 77%
23:00 +6°C° 0 mm 2 mps 740 mmHg 76%

22 April, Thursday

Time Temperature Precipitation Wind Pressure Humidity
00:00 +6°C° 0 mm 2 mps 740 mmHg 76%
01:00 +7°C° 0 mm 2 mps 740 mmHg 76%
02:00 +7°C° 0 mm 2 mps 740 mmHg 77%
03:00 +6°C° 0 mm 2 mps 740 mmHg 78%
04:00 +5°C° 0 mm 3 mps 740 mmHg 79%
05:00 +7°C° 0 mm 3 mps 741 mmHg 78%
06:00 +8°C° 0 mm 3 mps 741 mmHg 77%
07:00 +8°C° 0 mm 4 mps 741 mmHg 76%
08:00 +11°C° 0 mm 4 mps 741 mmHg 70%
09:00 +13°C° 0 mm 4 mps 742 mmHg 64%
10:00 +15°C° 0 mm 4 mps 742 mmHg 59%
11:00 +15°C° 0 mm 4 mps 742 mmHg 53%
12:00 +17°C° 0 mm 3 mps 742 mmHg 48%
13:00 +18°C° 0 mm 3 mps 742 mmHg 42%
14:00 +18°C° 0 mm 3 mps 741 mmHg 45%
15:00 +18°C° 0 mm 3 mps 741 mmHg 48%
16:00 +18°C° 0 mm 3 mps 741 mmHg 51%
17:00 +16°C° 0.2 mm 3 mps 742 mmHg 58%
18:00 +14°C° 0.2 mm 3 mps 742 mmHg 65%
19:00 +12°C° 0.2 mm 3 mps 742 mmHg 72%
20:00 +12°C° 0.2 mm 3 mps 742 mmHg 76%
21:00 +11°C° 0.2 mm 3 mps 742 mmHg 80%
22:00 +10°C° 0.2 mm 3 mps 742 mmHg 84%
23:00 +9°C° 0 mm 3 mps 742 mmHg 85%
Show more